Location: *
(47.2969°N, 10.2930°E)
Time: 11:56:39
(UTC+00:00)

Cosmos 2251 Rocket - Pass Details

Date: 09 April 2020
Orbit: 765 x 791 km, 74.0° (Epoch: 24 May)

Event Time Altitude Azimuth Distance (km) Brightness Sun altitude
Rises 18:21:09 0° 211° (SSW) 3,271 7.0 -4.3°
Reaches altitude 10° 18:23:33 10° 215° (SW) 2,349 6.3 -4.7°
Maximum altitude 18:28:51 61° 295° (WNW) 896 4.3 -5.5°
Drops below altitude 10° 18:34:12 10° 17° (NNE) 2,368 6.1 -6.4°
Sets 18:36:38 0° 21° (NNE) 3,300 6.8 -6.8°
